STARLINK-35576, 66137

Orbit data source: Space-Track

STARLINK-35576, 66137 is a payload satellite owned by SpaceX/Seattle (US) in LEO that was launched on Wed, 22 Oct 2025 UTC via an FALCON 9 launch vehicle from the Air Force Western Test Range (AFWTR). Payload-class satellites include a variety of spacecraft equipped with specific instruments for various scientific and technological missions. These include communications satellites like Starlink; space stations such as the ISS; scientific satellites like the Hubble; Earth observation satellites from companies like Planet Labs, Umbra, and HawkEye 360; GPS; miniature CubeSats for education and research; and military/defense satellites.

Loading next visibility...
Identifier
66137, 2025-237Z
Orbit
LEO
Country
Flag of USUS
Related business
Manufacturer
SpaceX/Seattle
Mission
Operational Commercial Communications
Bus & Motor
STARLINK V2MO, Unknown motor
Mass
575 kg wet, ~530 kg dry
Launch date (UTC)
2025-10-22 (4 months ago)
Launch vehicle
FALCON 9
Launch site
Air Force Western Test Range (AFWTR)
Object type
Payload
Rocket body
Debris
Shape & HBR
Box + 2 Pan, 17.7 m
Radar Cross Section
36.964 m²

Expand to show TLE details & history
Last TLE update: 20 hours ago

TLE from 20 hours ago
0 STARLINK-35576
1 66137U 25237Z   26061.30268206  .00018365  00000-0  63073-3 0  9999
2 66137  53.1604  73.6422 0001408  83.7558 276.3603 15.30196391 21487
Epoch: 2026-03-02T07:15Z
TLE epoch observation values (Epoch: 2026-03-02T07:15:51.729Z)
Latitude
-0.00006°
Longitude
164.57858°
Altitude
476.019 km
Speed
7.629 km/s
True Right ascension
04h 54m 34s
True Declination
0° 00' 00"
Sunlit
Object was in daylight at epoch
Visualization orbit readout
Latitude
Unknown
Longitude
Unknown
Altitude
Unknown
Speed
Unknown
Apparent Right ascension
Unknown
Apparent Declination
Unknown
Sunlit
N/A
Visualization observer readout
Local Sidereal Time
07:14:19
Azimuth
Unknown
Elevation
Unknown
Doppler factor
Unknown
Orbital elements
Apogee altitude
476.447 km
Perigee altitude
474.517 km
Semi-major axis
6,853.619 km
Eccentricity
0.00014
Inclination
53.1604°
RAAN
73.6422°
Arg. of periapsis
83.7558°
True anomaly
276.34426°
Mean anomaly
276.3603°
Eccentric anomaly
276.35228°
Mean motion
3.82528 °/min
Orbital period
94.11 mins
BSTAR
0.00063073
Loading maneuver chart data...
Computing Atmospheric mass density...
Loading historical data...
Loading historical data...
Loading historical data...
Loading historical data...
Loading historical data...
Loading historical data...
Loading historical data...

Documentation

Showing up to 5 results
|